Year,Month,Day,Hour,Minute,Value (Times are PST for temperature in C)
2017,02,23,00,00,0.60
2017,02,23,00,01,0.60
2017,02,23,00,02,0.60
2017,02,23,00,03,0.60
2017,02,23,00,04,0.50
2017,02,23,00,05,0.50
2017,02,23,00,06,0.50
2017,02,23,00,07,0.40
2017,02,23,00,08,0.40
2017,02,23,00,09,0.40
2017,02,23,00,10,0.40
2017,02,23,00,11,0.30
2017,02,23,00,12,0.30
2017,02,23,00,13,0.30
2017,02,23,00,14,0.30
2017,02,23,00,15,0.30
2017,02,23,00,16,0.30
2017,02,23,00,17,0.30
2017,02,23,00,18,0.20
2017,02,23,00,19,0.20
2017,02,23,00,20,0.20
2017,02,23,00,21,0.20
2017,02,23,00,22,0.20
2017,02,23,00,23,0.20
2017,02,23,00,24,0.20
2017,02,23,00,25,0.10
2017,02,23,00,26,0.10
2017,02,23,00,27,0.10
2017,02,23,00,28,0.10
2017,02,23,00,29,0.20
2017,02,23,00,30,0.20
2017,02,23,00,31,0.20
2017,02,23,00,32,0.20
2017,02,23,00,33,0.20
2017,02,23,00,34,0.20
2017,02,23,00,35,0.20
2017,02,23,00,36,0.20
2017,02,23,00,37,0.20
2017,02,23,00,38,0.20
2017,02,23,00,39,0.20
2017,02,23,00,40,0.20
2017,02,23,00,41,0.20
2017,02,23,00,42,0.20
2017,02,23,00,43,0.20
2017,02,23,00,44,0.20
2017,02,23,00,45,0.20
2017,02,23,00,46,0.20
2017,02,23,00,47,0.20
2017,02,23,00,48,0.30
2017,02,23,00,49,0.30
2017,02,23,00,50,0.30
2017,02,23,00,51,0.30
2017,02,23,00,52,0.30
2017,02,23,00,53,0.40
2017,02,23,00,54,0.40
2017,02,23,00,55,0.40
2017,02,23,00,56,0.40
2017,02,23,00,57,0.40
2017,02,23,00,58,0.40
2017,02,23,00,59,0.50
2017,02,23,01,00,0.50
2017,02,23,01,01,0.50
2017,02,23,01,02,0.60
2017,02,23,01,03,0.60
2017,02,23,01,04,0.60
2017,02,23,01,05,0.60
2017,02,23,01,06,0.60
2017,02,23,01,07,0.60
2017,02,23,01,08,0.60
2017,02,23,01,09,0.60
2017,02,23,01,10,0.60
2017,02,23,01,11,0.60
2017,02,23,01,12,0.60
2017,02,23,01,13,0.50
2017,02,23,01,14,0.50
2017,02,23,01,15,0.50
2017,02,23,01,16,0.50
2017,02,23,01,17,0.40
2017,02,23,01,18,0.40
2017,02,23,01,19,0.50
2017,02,23,01,20,0.50
2017,02,23,01,21,0.50
2017,02,23,01,22,0.40
2017,02,23,01,23,0.40
2017,02,23,01,24,0.50
2017,02,23,01,25,0.50
2017,02,23,01,26,0.60
2017,02,23,01,27,0.60
2017,02,23,01,28,0.60
2017,02,23,01,29,0.60
2017,02,23,01,30,0.70
2017,02,23,01,31,0.70
2017,02,23,01,32,0.80
2017,02,23,01,33,0.80
2017,02,23,01,34,0.80
2017,02,23,01,35,0.80
2017,02,23,01,36,0.80
2017,02,23,01,37,0.80
2017,02,23,01,38,0.80
2017,02,23,01,39,0.80
2017,02,23,01,40,0.80
2017,02,23,01,41,0.80
2017,02,23,01,42,0.80
2017,02,23,01,43,0.80
2017,02,23,01,44,0.80
2017,02,23,01,45,0.90
2017,02,23,01,46,0.90
2017,02,23,01,47,0.90
2017,02,23,01,48,0.90
2017,02,23,01,49,0.90
2017,02,23,01,50,0.90
2017,02,23,01,51,0.90
2017,02,23,01,52,0.90
2017,02,23,01,53,0.90
2017,02,23,01,54,0.80
2017,02,23,01,55,0.80
2017,02,23,01,56,0.80
2017,02,23,01,57,0.70
2017,02,23,01,58,0.70
2017,02,23,01,59,0.60
2017,02,23,02,00,0.60
2017,02,23,02,01,0.60
2017,02,23,02,02,0.50
2017,02,23,02,03,0.50
2017,02,23,02,04,0.40
2017,02,23,02,05,0.30
2017,02,23,02,06,0.30
2017,02,23,02,07,0.30
2017,02,23,02,08,0.20
2017,02,23,02,09,0.20
2017,02,23,02,10,0.20
2017,02,23,02,11,0.20
2017,02,23,02,12,0.20
2017,02,23,02,13,0.20
2017,02,23,02,14,0.20
2017,02,23,02,15,0.20
2017,02,23,02,16,0.20
2017,02,23,02,17,0.20
2017,02,23,02,18,0.20
2017,02,23,02,19,0.00
2017,02,23,02,20,-0.10
2017,02,23,02,21,-0.10
2017,02,23,02,22,-0.10
2017,02,23,02,23,-0.10
2017,02,23,02,24,0.00
2017,02,23,02,25,0.00
2017,02,23,02,26,0.00
2017,02,23,02,27,0.00
2017,02,23,02,28,0.10
2017,02,23,02,29,0.10
2017,02,23,02,30,0.20
2017,02,23,02,31,0.20
2017,02,23,02,32,0.20
2017,02,23,02,33,0.20
2017,02,23,02,34,0.20
2017,02,23,02,35,0.20
2017,02,23,02,36,0.20
2017,02,23,02,37,0.20
2017,02,23,02,38,0.20
2017,02,23,02,39,0.20
2017,02,23,02,40,0.20
2017,02,23,02,41,0.20
2017,02,23,02,42,0.20
2017,02,23,02,43,0.20
2017,02,23,02,44,0.20
2017,02,23,02,45,0.20
2017,02,23,02,46,0.20
2017,02,23,02,47,0.20
2017,02,23,02,48,0.20
2017,02,23,02,49,0.20
2017,02,23,02,50,0.20
2017,02,23,02,51,0.20
2017,02,23,02,52,0.10
2017,02,23,02,53,0.10
2017,02,23,02,54,0.10
2017,02,23,02,55,0.10
2017,02,23,02,56,0.10
2017,02,23,02,57,0.00
2017,02,23,02,58,0.00
2017,02,23,02,59,0.00
2017,02,23,03,00,-0.10
2017,02,23,03,01,-0.10
2017,02,23,03,02,-0.10
2017,02,23,03,03,-0.10
2017,02,23,03,04,-0.10
2017,02,23,03,05,-0.10
2017,02,23,03,06,-0.10
2017,02,23,03,07,-0.10
2017,02,23,03,08,-0.10
2017,02,23,03,09,-0.10
2017,02,23,03,10,-0.10
2017,02,23,03,11,-0.10
2017,02,23,03,12,-0.20
2017,02,23,03,13,-0.20
2017,02,23,03,14,-0.20
2017,02,23,03,15,-0.20
2017,02,23,03,16,-0.20
2017,02,23,03,17,-0.30
2017,02,23,03,18,-0.30
2017,02,23,03,19,-0.30
2017,02,23,03,20,-0.30
2017,02,23,03,21,-0.30
2017,02,23,03,22,-0.30
2017,02,23,03,23,-0.30
2017,02,23,03,24,-0.30
2017,02,23,03,25,-0.30
2017,02,23,03,26,-0.30
2017,02,23,03,27,-0.20
2017,02,23,03,28,-0.20
2017,02,23,03,29,-0.20
2017,02,23,03,30,-0.20
2017,02,23,03,31,-0.30
2017,02,23,03,32,-0.30
2017,02,23,03,33,-0.30
2017,02,23,03,34,-0.30
2017,02,23,03,35,-0.30
2017,02,23,03,36,-0.30
2017,02,23,03,37,-0.30
2017,02,23,03,38,-0.30
2017,02,23,03,39,-0.30
2017,02,23,03,40,-0.30
2017,02,23,03,41,-0.30
2017,02,23,03,42,-0.40
2017,02,23,03,43,-0.40
2017,02,23,03,44,-0.40
2017,02,23,03,45,-0.40
2017,02,23,03,46,-0.40
2017,02,23,03,47,-0.40
2017,02,23,03,48,-0.40
2017,02,23,03,49,-0.40
2017,02,23,03,50,-0.40
2017,02,23,03,51,-0.40
2017,02,23,03,52,-0.40
2017,02,23,03,53,-0.40
2017,02,23,03,54,-0.40
2017,02,23,03,55,-0.40
2017,02,23,03,56,-0.40
2017,02,23,03,57,-0.40
2017,02,23,03,58,-0.40
2017,02,23,03,59,-0.40
2017,02,23,04,00,-0.40
2017,02,23,04,01,-0.40
2017,02,23,04,02,-0.40
2017,02,23,04,03,-0.40
2017,02,23,04,04,-0.40
2017,02,23,04,05,-0.40
2017,02,23,04,06,-0.40
2017,02,23,04,07,-0.40
2017,02,23,04,08,-0.40
2017,02,23,04,09,-0.40
2017,02,23,04,10,-0.40
2017,02,23,04,11,-0.30
2017,02,23,04,12,-0.30
2017,02,23,04,13,-0.30
2017,02,23,04,14,-0.30
2017,02,23,04,15,-0.30
2017,02,23,04,16,-0.30
2017,02,23,04,17,-0.30
2017,02,23,04,18,-0.30
2017,02,23,04,19,-0.40
2017,02,23,04,20,-0.40
2017,02,23,04,21,-0.40
2017,02,23,04,22,-0.40
2017,02,23,04,23,-0.50
2017,02,23,04,24,-0.50
2017,02,23,04,25,-0.50
2017,02,23,04,26,-0.50
2017,02,23,04,27,-0.60
2017,02,23,04,28,-0.60
2017,02,23,04,29,-0.60
2017,02,23,04,30,-0.60
2017,02,23,04,31,-0.60
2017,02,23,04,32,-0.60
2017,02,23,04,33,-0.60
2017,02,23,04,34,-0.60
2017,02,23,04,35,-0.60
2017,02,23,04,36,-0.60
2017,02,23,04,37,-0.60
2017,02,23,04,38,-0.60
2017,02,23,04,39,-0.60
2017,02,23,04,40,-0.60
2017,02,23,04,41,-0.60
2017,02,23,04,42,-0.60
2017,02,23,04,43,-0.60
2017,02,23,04,44,-0.60
2017,02,23,04,45,-0.60
2017,02,23,04,46,-0.60
2017,02,23,04,47,-0.60
2017,02,23,04,48,-0.60
2017,02,23,04,49,-0.60
2017,02,23,04,50,-0.60
2017,02,23,04,51,-0.60
2017,02,23,04,52,-0.50
2017,02,23,04,53,-0.50
2017,02,23,04,54,-0.50
2017,02,23,04,55,-0.50
2017,02,23,04,56,-0.40
2017,02,23,04,57,-0.40
2017,02,23,04,58,-0.40
2017,02,23,04,59,-0.40
2017,02,23,05,00,-0.30
2017,02,23,05,01,-0.30
2017,02,23,05,02,-0.30
2017,02,23,05,03,-0.30
2017,02,23,05,04,-0.30
2017,02,23,05,05,-0.30
2017,02,23,05,06,-0.30
2017,02,23,05,07,-0.20
2017,02,23,05,08,-0.20
2017,02,23,05,09,-0.20
2017,02,23,05,10,-0.20
2017,02,23,05,11,-0.20
2017,02,23,05,12,-0.20
2017,02,23,05,13,-0.20
2017,02,23,05,14,-0.20
2017,02,23,05,15,-0.20
2017,02,23,05,16,-0.30
2017,02,23,05,17,-0.30
2017,02,23,05,18,-0.30
2017,02,23,05,19,-0.30
2017,02,23,05,20,-0.30
2017,02,23,05,21,-0.40
2017,02,23,05,22,-0.40
2017,02,23,05,23,-0.40
2017,02,23,05,24,-0.40
2017,02,23,05,25,-0.40
2017,02,23,05,26,-0.40
2017,02,23,05,27,-0.50
2017,02,23,05,28,-0.50
2017,02,23,05,29,-0.40
2017,02,23,05,30,-0.40
2017,02,23,05,31,-0.40
2017,02,23,05,32,-0.30
2017,02,23,05,33,-0.30
2017,02,23,05,34,-0.30
2017,02,23,05,35,-0.30
2017,02,23,05,36,-0.30
2017,02,23,05,37,-0.30
2017,02,23,05,38,-0.30
2017,02,23,05,39,-0.30
2017,02,23,05,40,-0.30
2017,02,23,05,41,-0.30
2017,02,23,05,42,-0.30
2017,02,23,05,43,-0.30
2017,02,23,05,44,-0.30
2017,02,23,05,45,-0.30
2017,02,23,05,46,-0.30
2017,02,23,05,47,-0.30
2017,02,23,05,48,-0.30
2017,02,23,05,49,-0.30
2017,02,23,05,50,-0.30
2017,02,23,05,51,-0.30
2017,02,23,05,52,-0.30
2017,02,23,05,53,-0.30
2017,02,23,05,54,-0.30
2017,02,23,05,55,-0.30
2017,02,23,05,56,-0.30
2017,02,23,05,57,-0.30
2017,02,23,05,58,-0.30
2017,02,23,05,59,-0.30
2017,02,23,06,00,-0.30
2017,02,23,06,01,-0.30
2017,02,23,06,02,-0.30
2017,02,23,06,03,-0.30
2017,02,23,06,04,-0.30
2017,02,23,06,05,-0.30
2017,02,23,06,06,-0.30
2017,02,23,06,07,-0.30
2017,02,23,06,08,-0.30
2017,02,23,06,09,-0.30
2017,02,23,06,10,-0.30
2017,02,23,06,11,-0.30
2017,02,23,06,12,-0.30
2017,02,23,06,13,-0.30
2017,02,23,06,14,-0.30
2017,02,23,06,15,-0.30
2017,02,23,06,16,-0.30
2017,02,23,06,17,-0.30
2017,02,23,06,18,-0.30
2017,02,23,06,19,-0.30
2017,02,23,06,20,-0.30
2017,02,23,06,21,-0.30
2017,02,23,06,22,-0.30
2017,02,23,06,23,-0.20
2017,02,23,06,24,-0.20
2017,02,23,06,25,-0.20
2017,02,23,06,26,-0.20
2017,02,23,06,27,-0.30
2017,02,23,06,28,-0.30
2017,02,23,06,29,-0.30
2017,02,23,06,30,-0.30
2017,02,23,06,31,-0.30
2017,02,23,06,32,-0.30
2017,02,23,06,33,-0.40
2017,02,23,06,34,-0.40
2017,02,23,06,35,-0.40
2017,02,23,06,36,-0.40
2017,02,23,06,37,-0.40
2017,02,23,06,38,-0.50
2017,02,23,06,39,-0.50
2017,02,23,06,40,-0.50
2017,02,23,06,41,-0.50
2017,02,23,06,42,-0.50
2017,02,23,06,43,-0.50
2017,02,23,06,44,-0.50
2017,02,23,06,45,-0.50
2017,02,23,06,46,-0.60
2017,02,23,06,47,-0.50
2017,02,23,06,48,-0.60
2017,02,23,06,49,-0.60
2017,02,23,06,50,-0.60
2017,02,23,06,51,-0.60
2017,02,23,06,52,-0.60
2017,02,23,06,53,-0.60
2017,02,23,06,54,-0.60
2017,02,23,06,55,-0.60
2017,02,23,06,56,-0.60
2017,02,23,06,57,-0.60
2017,02,23,06,58,-0.60
2017,02,23,06,59,-0.60
2017,02,23,07,00,-0.60
2017,02,23,07,01,-0.60
2017,02,23,07,02,-0.60
2017,02,23,07,03,-0.60
2017,02,23,07,04,-0.60
2017,02,23,07,05,-0.60
2017,02,23,07,06,-0.60
2017,02,23,07,07,-0.60
2017,02,23,07,08,-0.60
2017,02,23,07,09,-0.60
2017,02,23,07,10,-0.60
2017,02,23,07,11,-0.50
2017,02,23,07,12,-0.50
2017,02,23,07,13,-0.50
2017,02,23,07,14,-0.50
2017,02,23,07,15,-0.50
2017,02,23,07,16,-0.50
2017,02,23,07,17,-0.50
2017,02,23,07,18,-0.50
2017,02,23,07,19,-0.60
2017,02,23,07,20,-0.60
2017,02,23,07,21,-0.60
2017,02,23,07,22,-0.60
2017,02,23,07,23,-0.60
2017,02,23,07,24,-0.60
2017,02,23,07,25,-0.70
2017,02,23,07,26,-0.70
2017,02,23,07,27,-0.70
2017,02,23,07,28,-0.70
2017,02,23,07,29,-0.70
2017,02,23,07,30,-0.70
2017,02,23,07,31,-0.70
2017,02,23,07,32,-0.70
2017,02,23,07,33,-0.70
2017,02,23,07,34,-0.70
2017,02,23,07,35,-0.70
2017,02,23,07,36,-0.70
2017,02,23,07,37,-0.70
2017,02,23,07,38,-0.70
2017,02,23,07,39,-0.70
2017,02,23,07,40,-0.70
2017,02,23,07,41,-0.70
2017,02,23,07,42,-0.70
2017,02,23,07,43,-0.70
2017,02,23,07,44,-0.70
2017,02,23,07,45,-0.70
2017,02,23,07,46,-0.70
2017,02,23,07,47,-0.70
2017,02,23,07,48,-0.70
2017,02,23,07,49,-0.60
2017,02,23,07,50,-0.60
2017,02,23,07,51,-0.60
2017,02,23,07,52,-0.60
2017,02,23,07,53,-0.60
2017,02,23,07,54,-0.50
2017,02,23,07,55,-0.50
2017,02,23,07,56,-0.40
2017,02,23,07,57,-0.40
2017,02,23,07,58,-0.30
2017,02,23,07,59,-0.30
2017,02,23,08,00,-0.30
2017,02,23,08,01,-0.20
2017,02,23,08,02,-0.20
2017,02,23,08,03,-0.10
2017,02,23,08,04,0.00
2017,02,23,08,05,0.00
2017,02,23,08,06,0.10
2017,02,23,08,07,0.10
2017,02,23,08,08,0.20
2017,02,23,08,09,0.20
2017,02,23,08,10,0.30
2017,02,23,08,11,0.30
2017,02,23,08,12,0.30
2017,02,23,08,13,0.30
2017,02,23,08,14,0.40
2017,02,23,08,15,0.40
2017,02,23,08,16,0.40
2017,02,23,08,17,0.50
2017,02,23,08,18,0.50
2017,02,23,08,19,0.60
2017,02,23,08,20,0.70
2017,02,23,08,21,0.80
2017,02,23,08,22,0.80
2017,02,23,08,23,0.90
2017,02,23,08,24,0.90
2017,02,23,08,25,1.00
2017,02,23,08,26,1.00
2017,02,23,08,27,1.10
2017,02,23,08,28,1.10
2017,02,23,08,29,1.20
2017,02,23,08,30,1.20
2017,02,23,08,31,1.20
2017,02,23,08,32,1.30
2017,02,23,08,33,1.30
2017,02,23,08,34,1.30
2017,02,23,08,35,1.30
2017,02,23,08,36,1.30
2017,02,23,08,37,1.30
2017,02,23,08,38,1.40
2017,02,23,08,39,1.40
2017,02,23,08,40,1.40
2017,02,23,08,41,1.40
2017,02,23,08,42,1.40
2017,02,23,08,43,1.50
2017,02,23,08,44,1.50
2017,02,23,08,45,1.50
2017,02,23,08,46,1.60
2017,02,23,08,47,1.60
2017,02,23,08,48,1.60
2017,02,23,08,49,1.70
2017,02,23,08,50,1.70
2017,02,23,08,51,1.70
2017,02,23,08,52,1.70
2017,02,23,08,53,1.80
2017,02,23,08,54,1.80
2017,02,23,08,55,1.80
2017,02,23,08,56,1.90
2017,02,23,08,57,1.90
2017,02,23,08,58,2.00
2017,02,23,08,59,2.00
2017,02,23,09,00,2.10
2017,02,23,09,01,2.10
2017,02,23,09,02,2.10
2017,02,23,09,03,2.20
2017,02,23,09,04,2.20
2017,02,23,09,05,2.20
2017,02,23,09,06,2.30
2017,02,23,09,07,2.40
2017,02,23,09,08,2.40
2017,02,23,09,09,2.40
2017,02,23,09,10,2.40
2017,02,23,09,11,2.50
2017,02,23,09,12,2.60
2017,02,23,09,13,2.60
2017,02,23,09,14,2.70
2017,02,23,09,15,2.70
2017,02,23,09,16,2.70
2017,02,23,09,17,2.70
2017,02,23,09,18,2.70
2017,02,23,09,19,2.80
2017,02,23,09,20,2.80
2017,02,23,09,21,2.80
2017,02,23,09,22,2.80
2017,02,23,09,23,2.80
2017,02,23,09,24,2.90
2017,02,23,09,25,2.90
2017,02,23,09,26,2.90
2017,02,23,09,27,2.90
2017,02,23,09,28,3.00
2017,02,23,09,29,3.00
2017,02,23,09,30,3.00
2017,02,23,09,31,3.00
2017,02,23,09,32,3.00
2017,02,23,09,33,3.00
2017,02,23,09,34,3.10
2017,02,23,09,35,3.10
2017,02,23,09,36,3.10
2017,02,23,09,37,3.20
2017,02,23,09,38,3.20
2017,02,23,09,39,3.30
2017,02,23,09,40,3.30
2017,02,23,09,41,3.30
2017,02,23,09,42,3.40
2017,02,23,09,43,3.40
2017,02,23,09,44,3.40
2017,02,23,09,45,3.50
2017,02,23,09,46,3.50
2017,02,23,09,47,3.50
2017,02,23,09,48,3.50
2017,02,23,09,49,3.50
2017,02,23,09,50,3.40
2017,02,23,09,51,3.40
2017,02,23,09,52,3.40
2017,02,23,09,53,3.40
2017,02,23,09,54,3.40
2017,02,23,09,55,3.40
2017,02,23,09,56,3.40
2017,02,23,09,57,3.40
2017,02,23,09,58,3.40
2017,02,23,09,59,3.40
2017,02,23,10,00,3.40
2017,02,23,10,01,3.40
2017,02,23,10,02,3.50
2017,02,23,10,03,3.50
2017,02,23,10,04,3.50
2017,02,23,10,05,3.50
2017,02,23,10,06,3.60
2017,02,23,10,07,3.70
2017,02,23,10,08,3.70
2017,02,23,10,09,3.70
2017,02,23,10,10,3.70
2017,02,23,10,11,3.70
2017,02,23,10,12,3.70
2017,02,23,10,13,3.80
2017,02,23,10,14,3.80
2017,02,23,10,15,3.90
2017,02,23,10,16,3.90
2017,02,23,10,17,4.00
2017,02,23,10,18,4.00
2017,02,23,10,19,4.10
2017,02,23,10,20,4.10
2017,02,23,10,21,4.20
2017,02,23,10,22,4.20
2017,02,23,10,23,4.30
2017,02,23,10,24,4.30
2017,02,23,10,25,4.30
2017,02,23,10,26,4.30
2017,02,23,10,27,4.30
2017,02,23,10,28,4.30
2017,02,23,10,29,4.20
2017,02,23,10,30,4.20
2017,02,23,10,31,4.20
2017,02,23,10,32,4.30
2017,02,23,10,33,4.30
2017,02,23,10,34,4.30
2017,02,23,10,35,4.40
2017,02,23,10,36,4.50
2017,02,23,10,37,4.50
2017,02,23,10,38,4.50
2017,02,23,10,39,4.60
2017,02,23,10,40,4.60
2017,02,23,10,41,4.70
2017,02,23,10,42,4.80
2017,02,23,10,43,4.90
2017,02,23,10,44,4.90
2017,02,23,10,45,4.90
2017,02,23,10,46,4.90
2017,02,23,10,47,4.90
2017,02,23,10,48,4.90
2017,02,23,10,49,4.90
2017,02,23,10,50,4.90
2017,02,23,10,51,4.90
2017,02,23,10,52,4.80
2017,02,23,10,53,4.80
2017,02,23,10,54,4.80
2017,02,23,10,55,4.70
2017,02,23,10,56,4.80
2017,02,23,10,57,4.80
2017,02,23,10,58,5.00
2017,02,23,10,59,5.10
2017,02,23,11,00,5.30
2017,02,23,11,01,5.40
2017,02,23,11,02,5.60
2017,02,23,11,03,5.70
2017,02,23,11,04,5.80
2017,02,23,11,05,5.80
2017,02,23,11,06,5.90
2017,02,23,11,07,6.00
2017,02,23,11,08,6.10
2017,02,23,11,09,6.10
2017,02,23,11,10,6.10
2017,02,23,11,11,6.10
2017,02,23,11,12,6.00
2017,02,23,11,13,6.00
2017,02,23,11,14,6.00
2017,02,23,11,15,5.90
2017,02,23,11,16,5.90
2017,02,23,11,17,5.80
2017,02,23,11,18,5.60
2017,02,23,11,19,5.50
2017,02,23,11,20,5.50
2017,02,23,11,21,5.60
2017,02,23,11,22,5.60
2017,02,23,11,23,5.50
2017,02,23,11,24,5.40
2017,02,23,11,25,5.40
2017,02,23,11,26,5.40
2017,02,23,11,27,5.30
2017,02,23,11,28,5.30
2017,02,23,11,29,5.30
2017,02,23,11,30,5.30
2017,02,23,11,31,5.30
2017,02,23,11,32,5.30
2017,02,23,11,33,5.30
2017,02,23,11,34,5.30
2017,02,23,11,35,5.40
2017,02,23,11,36,5.60
2017,02,23,11,37,5.80
2017,02,23,11,38,5.90
2017,02,23,11,39,6.00
2017,02,23,11,40,6.20
2017,02,23,11,41,6.30
2017,02,23,11,42,6.40
2017,02,23,11,43,6.40
2017,02,23,11,44,6.30
2017,02,23,11,45,6.30
2017,02,23,11,46,6.30
2017,02,23,11,47,6.30
2017,02,23,11,48,6.20
2017,02,23,11,49,6.30
2017,02,23,11,50,6.20
2017,02,23,11,51,6.10
2017,02,23,11,52,6.00
2017,02,23,11,53,6.00
2017,02,23,11,54,6.10
2017,02,23,11,55,6.20
2017,02,23,11,56,6.10
2017,02,23,11,57,6.10
2017,02,23,11,58,6.10
2017,02,23,11,59,6.10
2017,02,23,12,00,6.10
2017,02,23,12,01,6.00
2017,02,23,12,02,6.00
2017,02,23,12,03,6.00
2017,02,23,12,04,5.80
2017,02,23,12,05,5.80
2017,02,23,12,06,5.70
2017,02,23,12,07,5.70
2017,02,23,12,08,5.60
2017,02,23,12,09,5.60
2017,02,23,12,10,5.70
2017,02,23,12,11,5.70
2017,02,23,12,12,5.70
2017,02,23,12,13,5.60
2017,02,23,12,14,5.60
2017,02,23,12,15,5.70
2017,02,23,12,16,5.70
2017,02,23,12,17,5.60
2017,02,23,12,18,5.60
2017,02,23,12,19,5.70
2017,02,23,12,20,5.80
2017,02,23,12,21,5.80
2017,02,23,12,22,5.90
2017,02,23,12,23,5.90
2017,02,23,12,24,5.90
2017,02,23,12,25,5.90
2017,02,23,12,26,5.90
2017,02,23,12,27,5.80
2017,02,23,12,28,5.80
2017,02,23,12,29,5.80
2017,02,23,12,30,5.80
2017,02,23,12,31,5.80
2017,02,23,12,32,5.80
2017,02,23,12,33,5.80
2017,02,23,12,34,5.80
2017,02,23,12,35,5.80
2017,02,23,12,36,5.80
2017,02,23,12,37,5.80
2017,02,23,12,38,5.80
2017,02,23,12,39,5.80
2017,02,23,12,40,5.80
2017,02,23,12,41,5.80
2017,02,23,12,42,5.90
2017,02,23,12,43,6.00
2017,02,23,12,44,6.20
2017,02,23,12,45,6.30
2017,02,23,12,46,6.30
2017,02,23,12,47,6.30
2017,02,23,12,48,6.40
2017,02,23,12,49,6.40
2017,02,23,12,50,6.40
2017,02,23,12,51,6.40
2017,02,23,12,52,6.30
2017,02,23,12,53,6.20
2017,02,23,12,54,6.20
2017,02,23,12,55,6.30
2017,02,23,12,56,6.50
2017,02,23,12,57,6.70
2017,02,23,12,58,6.80
2017,02,23,12,59,6.90
2017,02,23,13,00,7.00
2017,02,23,13,01,7.10
2017,02,23,13,02,7.10
2017,02,23,13,03,7.10
2017,02,23,13,04,7.00
2017,02,23,13,05,6.90
2017,02,23,13,06,6.80
2017,02,23,13,07,6.80
2017,02,23,13,08,6.80
2017,02,23,13,09,6.60
2017,02,23,13,10,6.50
2017,02,23,13,11,6.40
2017,02,23,13,12,6.40
2017,02,23,13,13,6.40
2017,02,23,13,14,6.40
2017,02,23,13,15,6.40
2017,02,23,13,16,6.40
2017,02,23,13,17,6.40
2017,02,23,13,18,6.50
2017,02,23,13,19,6.50
2017,02,23,13,20,6.40
2017,02,23,13,21,6.30
2017,02,23,13,22,6.30
2017,02,23,13,23,6.30
2017,02,23,13,24,6.20
2017,02,23,13,25,6.20
2017,02,23,13,26,6.20
2017,02,23,13,27,6.20
2017,02,23,13,28,6.10
2017,02,23,13,29,6.10
2017,02,23,13,30,6.20
2017,02,23,13,31,6.20
2017,02,23,13,32,6.20
2017,02,23,13,33,6.20
2017,02,23,13,34,6.20
2017,02,23,13,35,6.20
2017,02,23,13,36,6.20
2017,02,23,13,37,6.20
2017,02,23,13,38,6.20
2017,02,23,13,39,6.20
2017,02,23,13,40,6.20
2017,02,23,13,41,6.20
2017,02,23,19,38,2.50
2017,02,23,19,39,2.40
2017,02,23,19,40,2.40
2017,02,23,19,41,2.40
2017,02,23,19,42,2.50
2017,02,23,19,43,2.50
2017,02,23,19,44,2.50
2017,02,23,19,45,2.50
2017,02,23,19,46,2.40
2017,02,23,19,47,2.40
2017,02,23,19,48,2.40
2017,02,23,19,49,2.40
2017,02,23,19,50,2.40
2017,02,23,19,51,2.40
2017,02,23,19,52,2.40
2017,02,23,19,53,2.40
2017,02,23,19,54,2.40
2017,02,23,19,55,2.40
2017,02,23,19,56,2.40
2017,02,23,19,57,2.30
2017,02,23,19,58,2.30
2017,02,23,19,59,2.30
2017,02,23,20,00,2.30
2017,02,23,20,01,2.30
2017,02,23,20,02,2.30
2017,02,23,20,03,2.30
2017,02,23,20,04,2.20
2017,02,23,20,05,2.20
2017,02,23,20,06,2.20
2017,02,23,20,07,2.20
2017,02,23,20,08,2.20
2017,02,23,20,09,2.20
2017,02,23,20,10,2.10
2017,02,23,20,11,2.10
2017,02,23,20,12,2.10
2017,02,23,20,13,2.10
2017,02,23,20,14,2.10
2017,02,23,20,15,2.00
2017,02,23,20,16,2.00
2017,02,23,20,17,2.00
2017,02,23,20,18,2.00
2017,02,23,20,19,1.90
2017,02,23,20,20,1.90
2017,02,23,20,21,1.90
2017,02,23,20,22,1.90
2017,02,23,20,23,1.90
2017,02,23,20,24,1.90
2017,02,23,20,25,1.90
2017,02,23,20,26,1.90
2017,02,23,20,27,1.90
2017,02,23,20,28,1.90
2017,02,23,20,29,1.90
2017,02,23,20,30,1.80
2017,02,23,20,31,1.80
2017,02,23,20,32,1.80
2017,02,23,20,33,1.80
2017,02,23,20,34,1.80
2017,02,23,20,35,1.80
2017,02,23,20,36,1.80
2017,02,23,20,37,1.80
2017,02,23,20,38,1.80
2017,02,23,20,39,1.80
2017,02,23,20,40,1.80
2017,02,23,20,41,1.80
2017,02,23,20,42,1.70
2017,02,23,20,43,1.70
2017,02,23,20,44,1.70
2017,02,23,20,45,1.70
2017,02,23,20,46,1.70
2017,02,23,20,47,1.70
2017,02,23,20,48,1.70
2017,02,23,20,49,1.70
2017,02,23,20,50,1.70
2017,02,23,20,51,1.70
2017,02,23,20,52,1.70
2017,02,23,20,53,1.70
2017,02,23,20,54,1.60
2017,02,23,20,55,1.60
2017,02,23,20,56,1.60
2017,02,23,20,57,1.60
2017,02,23,20,58,1.60
2017,02,23,20,59,1.60
2017,02,23,21,00,1.60
2017,02,23,21,01,1.60
2017,02,23,21,02,1.60
2017,02,23,21,03,1.60
2017,02,23,21,04,1.60
2017,02,23,21,05,1.50
2017,02,23,21,06,1.50
2017,02,23,21,07,1.50
2017,02,23,21,08,1.50
2017,02,23,21,09,1.50
2017,02,23,21,10,1.50
2017,02,23,21,11,1.50
2017,02,23,21,12,1.40
2017,02,23,21,13,1.40
2017,02,23,21,14,1.40
2017,02,23,21,15,1.40
2017,02,23,21,16,1.40
2017,02,23,21,17,1.40
2017,02,23,21,18,1.40
2017,02,23,21,19,1.40
2017,02,23,21,20,1.40
2017,02,23,21,21,1.40
2017,02,23,21,22,1.40
2017,02,23,21,23,1.40
2017,02,23,21,24,1.40
2017,02,23,21,25,1.40
2017,02,23,21,26,1.40
2017,02,23,21,27,1.40
2017,02,23,21,28,1.40
2017,02,23,21,29,1.30
2017,02,23,21,30,1.30
2017,02,23,21,31,1.30
2017,02,23,21,32,1.30
2017,02,23,21,33,1.30
2017,02,23,21,34,1.30
2017,02,23,21,35,1.30
2017,02,23,21,36,1.30
2017,02,23,21,37,1.30
2017,02,23,21,38,1.30
2017,02,23,21,39,1.30
2017,02,23,21,40,1.30
2017,02,23,21,41,1.30
2017,02,23,21,42,1.30
2017,02,23,21,43,1.30
2017,02,23,21,44,1.30
2017,02,23,21,45,1.30
2017,02,23,21,46,1.30
2017,02,23,21,47,1.30
2017,02,23,21,48,1.30
2017,02,23,21,49,1.30
2017,02,23,21,50,1.30
2017,02,23,21,51,1.30
2017,02,23,21,52,1.30
2017,02,23,21,53,1.30
2017,02,23,21,54,1.30
2017,02,23,21,55,1.30
2017,02,23,21,56,1.30
2017,02,23,21,57,1.30
2017,02,23,21,58,1.30
2017,02,23,21,59,1.30
2017,02,23,22,00,1.30
2017,02,23,22,01,1.30
2017,02,23,22,02,1.30
2017,02,23,22,03,1.30
2017,02,23,22,04,1.30
2017,02,23,22,05,1.30
2017,02,23,22,06,1.30
2017,02,23,22,07,1.30
2017,02,23,22,08,1.30
2017,02,23,22,09,1.30
2017,02,23,22,10,1.30
2017,02,23,22,11,1.30
2017,02,23,22,12,1.30
2017,02,23,22,13,1.30
2017,02,23,22,14,1.30
2017,02,23,22,15,1.30
2017,02,23,22,16,1.30
2017,02,23,22,17,1.30
2017,02,23,22,18,1.30
2017,02,23,22,19,1.30
2017,02,23,22,20,1.30
2017,02,23,22,21,1.30
2017,02,23,22,22,1.40
2017,02,23,22,23,1.40
2017,02,23,22,24,1.40
2017,02,23,22,25,1.40
2017,02,23,22,26,1.50
2017,02,23,22,27,1.50
2017,02,23,22,28,1.50
2017,02,23,22,29,1.50
2017,02,23,22,30,1.50
2017,02,23,22,31,1.50
2017,02,23,22,32,1.50
2017,02,23,22,33,1.50
2017,02,23,22,34,1.50
2017,02,23,22,35,1.50
2017,02,23,22,36,1.50
2017,02,23,22,37,1.50
2017,02,23,22,38,1.50
2017,02,23,22,39,1.50
2017,02,23,22,40,1.50
2017,02,23,22,41,1.50
2017,02,23,22,42,1.50
2017,02,23,22,43,1.60
2017,02,23,22,44,1.60
2017,02,23,22,45,1.60
2017,02,23,22,46,1.60
2017,02,23,22,47,1.60
2017,02,23,22,48,1.60
2017,02,23,22,49,1.60
2017,02,23,22,50,1.70
2017,02,23,22,51,1.70
2017,02,23,22,52,1.70
2017,02,23,22,53,1.70
2017,02,23,22,54,1.70
2017,02,23,22,55,1.70
2017,02,23,22,56,1.70
2017,02,23,22,57,1.70
2017,02,23,22,58,1.70
2017,02,23,22,59,1.70
2017,02,23,23,00,1.70
2017,02,23,23,01,1.70
2017,02,23,23,02,1.70
2017,02,23,23,03,1.70
2017,02,23,23,04,1.60
2017,02,23,23,05,1.60
2017,02,23,23,06,1.60
2017,02,23,23,07,1.60
2017,02,23,23,08,1.60
2017,02,23,23,09,1.60
2017,02,23,23,10,1.60
2017,02,23,23,11,1.60
2017,02,23,23,12,1.60
2017,02,23,23,13,1.60
2017,02,23,23,14,1.60
2017,02,23,23,15,1.60
2017,02,23,23,16,1.60
2017,02,23,23,17,1.60
2017,02,23,23,18,1.60
2017,02,23,23,19,1.60
2017,02,23,23,20,1.60
2017,02,23,23,21,1.60
2017,02,23,23,22,1.60
2017,02,23,23,23,1.60
2017,02,23,23,24,1.60
2017,02,23,23,25,1.60
2017,02,23,23,26,1.60
2017,02,23,23,27,1.60
2017,02,23,23,28,1.60
2017,02,23,23,29,1.60
2017,02,23,23,30,1.60
2017,02,23,23,31,1.60
2017,02,23,23,32,1.60
2017,02,23,23,33,1.60
2017,02,23,23,34,1.60
2017,02,23,23,35,1.60
2017,02,23,23,36,1.50
2017,02,23,23,37,1.50
2017,02,23,23,38,1.50
2017,02,23,23,39,1.50
2017,02,23,23,40,1.60
2017,02,23,23,41,1.60
2017,02,23,23,42,1.60
2017,02,23,23,43,1.60
2017,02,23,23,44,1.60
2017,02,23,23,45,1.60
2017,02,23,23,46,1.60
2017,02,23,23,47,1.60
2017,02,23,23,48,1.60